, AK

(GMT )
Eureka

Weather History for PAZK - August, 2012

Change the Weather History Date:

Wednesday, August 1, 2012

  Actual Average Record
Temperature  
Mean Temperature 48 °F -  
Max Temperature 53 °F 56 °F 66 °F (1998)
Min Temperature 42 °F 41 °F 33 °F (2005)
Degree Days  
Heating Degree Days 18    
Moisture  
Dew Point 39 °F    
Average Humidity 73    
Maximum Humidity 93    
Minimum Humidity 50    
Precipitation  
Precipitation 0.00 in - - ()
Sea Level Pressure  
Sea Level Pressure 29.77 in    
Wind  
Wind Speed 7 mph (South)    
Max Wind Speed 12 mph    
Max Gust Speed 17 mph    
Visibility 10 miles    
Events      
Averages and records for this station are not official NWS values.
T = Trace of Precipitation, MM = Missing Value Source: NWS Daily Summary

Daily Weather History Graph

Daily Weather History Graph

Search for Another Location

Airport or City:

Trip Planner

Search our weather history database for the weather conditions in past years. The results will help you decide how hot, cold, wet, or windy it might be!

Date:

Astronomy

Aug. 01, 2012 Rise Set
Actual Time 5:17 AM AKDT 10:30 PM AKDT
Civil Twilight 4:07 AM AKDT 11:38 PM AKDT
Nautical Twilight 2:27 AM AKDT 1:22 AM AKDT
Astronomical Twilight Sun does not rise Sun does not rise
Moon 9:37 PM AKDT (8/1) 5:11 AM AKDT (8/1)
Length of Visible Light 19h 31m
Length of Day
17h 13m
Full, 100% of the Moon is Illuminated
Aug 1
Full
Aug 1
Full
Aug 9
Last Quarter
Aug 17
New
Aug 24
First Quarter

Hourly Weather History & Observations

Time (AKDT) Temp. Windchill Dew Point Humidity Pressure Visibility Wind Dir Wind Speed Gust Speed Precip Events Conditions
12:16 AM 44.6 °F 40.7 °F 37.4 °F 76% 29.83 in 10.0 mi WSW 6.9 mph - N/A   Clear
12:36 AM 44.6 °F 40.2 °F 39.2 °F 81% 29.81 in 10.0 mi WSW 8.1 mph - N/A   Clear
12:56 AM 44.6 °F 40.2 °F 39.2 °F 81% 29.83 in 10.0 mi WSW 8.1 mph - N/A   Clear
1:16 AM 44.6 °F 40.2 °F 39.2 °F 81% 29.83 in 10.0 mi WSW 8.1 mph - N/A   Clear
1:36 AM 42.8 °F 38.0 °F 37.4 °F 81% 29.83 in 10.0 mi WSW 8.1 mph - N/A   Clear
1:56 AM 42.8 °F 37.5 °F 37.4 °F 81% 29.83 in 10.0 mi WSW 9.2 mph - N/A   Clear
2:16 AM 42.8 °F 38.6 °F 37.4 °F 81% 29.83 in 10.0 mi WSW 6.9 mph - N/A   Clear
2:36 AM 42.8 °F 38.0 °F 37.4 °F 81% 29.82 in 10.0 mi West 8.1 mph - N/A   Clear
2:56 AM 42.8 °F 38.0 °F 39.2 °F 87% 29.82 in 10.0 mi West 8.1 mph - N/A   Clear
3:16 AM 42.8 °F 37.5 °F 39.2 °F 87% 29.81 in 10.0 mi West 9.2 mph - N/A   Clear
3:36 AM 42.8 °F 39.3 °F 39.2 °F 87% 29.81 in 10.0 mi West 5.8 mph - N/A   Clear
3:56 AM 42.8 °F 38.6 °F 39.2 °F 87% 29.80 in 10.0 mi West 6.9 mph - N/A   Clear
4:16 AM 42.8 °F 38.0 °F 39.2 °F 87% 29.80 in 10.0 mi West 8.1 mph - N/A   Clear
4:36 AM 42.8 °F 38.6 °F 39.2 °F 87% 29.80 in 10.0 mi West 6.9 mph - N/A   Clear
4:56 AM 42.8 °F 38.0 °F 39.2 °F 87% 29.80 in 10.0 mi West 8.1 mph - N/A   Clear
5:16 AM 42.8 °F 38.6 °F 39.2 °F 87% 29.80 in 10.0 mi West 6.9 mph - N/A   Partly Cloudy
5:36 AM 42.8 °F 37.5 °F 39.2 °F 87% 29.80 in 10.0 mi West 9.2 mph - N/A   Clear
5:56 AM 42.8 °F 38.0 °F 39.2 °F 87% 29.80 in 10.0 mi West 8.1 mph - N/A   Scattered Clouds
6:16 AM 42.8 °F 38.6 °F 39.2 °F 87% 29.80 in 10.0 mi West 6.9 mph - N/A   Mostly Cloudy
6:36 AM 42.8 °F 38.0 °F 39.2 °F 87% 29.81 in 10.0 mi WSW 8.1 mph - N/A   Overcast
6:56 AM 42.8 °F 38.6 °F 39.2 °F 87% 29.81 in 10.0 mi West 6.9 mph - N/A   Overcast
7:16 AM 42.8 °F 38.6 °F 39.2 °F 87% 29.81 in 10.0 mi West 6.9 mph - N/A   Overcast
7:36 AM 44.6 °F 41.4 °F 39.2 °F 81% 29.81 in 10.0 mi West 5.8 mph - N/A   Overcast
7:56 AM 44.6 °F 40.2 °F 39.2 °F 81% 29.81 in 10.0 mi West 8.1 mph - N/A   Overcast
8:16 AM 44.6 °F 42.2 °F 39.2 °F 81% 29.81 in 10.0 mi West 4.6 mph - N/A   Overcast
8:36 AM 44.6 °F 42.2 °F 39.2 °F 81% 29.81 in 10.0 mi West 4.6 mph - N/A   Overcast
8:56 AM 44.6 °F 42.2 °F 42.8 °F 93% 29.81 in 10.0 mi North 4.6 mph - N/A   Overcast
9:16 AM 44.6 °F 40.7 °F 42.8 °F 93% 29.81 in 10.0 mi NE 6.9 mph - N/A   Overcast
9:36 AM 46.4 °F 42.4 °F 42.8 °F 87% 29.80 in 10.0 mi NNE 8.1 mph - N/A   Overcast
9:56 AM 46.4 °F 42.9 °F 44.6 °F 93% 29.80 in 10.0 mi ENE 6.9 mph - N/A   Overcast
10:16 AM 46.4 °F 42.4 °F 42.8 °F 87% 29.79 in 10.0 mi East 8.1 mph - N/A   Overcast
10:36 AM 48.2 °F - 42.8 °F 82% 29.79 in 10.0 mi ENE 5.8 mph - N/A   Overcast
10:56 AM 48.2 °F - 44.6 °F 87% 29.78 in 10.0 mi NNE 8.1 mph - N/A   Overcast
11:16 AM 48.2 °F - 42.8 °F 82% 29.78 in 10.0 mi NNE 9.2 mph - N/A   Overcast
11:36 AM 48.2 °F - 42.8 °F 82% 29.78 in 10.0 mi NNE 6.9 mph - N/A   Overcast
11:56 AM 51.8 °F - 44.6 °F 76% 29.77 in 10.0 mi NNE 6.9 mph - N/A   Overcast
12:16 PM 51.8 °F - 42.8 °F 71% 29.77 in 10.0 mi North 5.8 mph - N/A   Overcast
12:36 PM 51.8 °F - 39.2 °F 62% 29.76 in 10.0 mi SE 5.8 mph - N/A   Mostly Cloudy
12:56 PM 53.6 °F - 39.2 °F 58% 29.77 in 10.0 mi SE 4.6 mph - N/A   Scattered Clouds
1:16 PM 53.6 °F - 39.2 °F 58% 29.77 in 10.0 mi South 5.8 mph - N/A   Clear
1:36 PM 53.6 °F - 39.2 °F 58% 29.77 in 10.0 mi SE 6.9 mph - N/A   Clear
1:56 PM 53.6 °F - 37.4 °F 54% 29.76 in 10.0 mi Calm Calm - N/A   Partly Cloudy
2:16 PM 53.6 °F - 39.2 °F 58% 29.76 in 10.0 mi SSE 4.6 mph - N/A   Mostly Cloudy
2:36 PM 53.6 °F - 39.2 °F 58% 29.76 in 10.0 mi SE 3.5 mph - N/A   Overcast
2:56 PM 53.6 °F - 39.2 °F 58% 29.76 in 10.0 mi SE 3.5 mph - N/A   Overcast
3:16 PM 53.6 °F - 39.2 °F 58% 29.76 in 10.0 mi Calm Calm - N/A   Overcast
3:36 PM 53.6 °F - 41.0 °F 62% 29.76 in 10.0 mi Calm Calm - N/A   Mostly Cloudy
3:56 PM 53.6 °F - 39.2 °F 58% 29.76 in 10.0 mi SE 4.6 mph - N/A   Partly Cloudy
4:16 PM 53.6 °F - 37.4 °F 54% 29.76 in 10.0 mi SE 4.6 mph - N/A   Partly Cloudy
4:36 PM 53.6 °F - 37.4 °F 54% 29.75 in 10.0 mi ESE 5.8 mph - N/A   Mostly Cloudy
4:56 PM 51.8 °F - 37.4 °F 58% 29.75 in 10.0 mi ESE 5.8 mph - N/A   Overcast
5:16 PM 51.8 °F - 39.2 °F 62% 29.74 in 10.0 mi ESE 6.9 mph - N/A   Overcast
5:36 PM 51.8 °F - 37.4 °F 58% 29.74 in 10.0 mi ESE 6.9 mph - N/A   Overcast
5:56 PM 51.8 °F - 37.4 °F 58% 29.73 in 10.0 mi ESE 5.8 mph - N/A   Overcast
6:16 PM 51.8 °F - 37.4 °F 58% 29.73 in 10.0 mi East 5.8 mph - N/A   Overcast
6:36 PM 51.8 °F - 35.6 °F 54% 29.72 in 10.0 mi SE 5.8 mph - N/A   Partly Cloudy
6:56 PM 51.8 °F - 33.8 °F 50% 29.71 in 10.0 mi SSE 9.2 mph - N/A   Mostly Cloudy
7:16 PM 51.8 °F - 33.8 °F 50% 29.71 in 10.0 mi South 11.5 mph 17.3 mph N/A   Overcast
7:36 PM 51.8 °F - 33.8 °F 50% 29.70 in 10.0 mi SSE 8.1 mph - N/A   Overcast
7:56 PM 50.0 °F - 33.8 °F 54% 29.70 in 10.0 mi SE 9.2 mph - N/A   Overcast
8:36 PM 48.2 °F - 35.6 °F 62% 29.68 in 10.0 mi ESE 9.2 mph - N/A   Overcast
8:56 PM 48.2 °F - 35.6 °F 62% 29.68 in 10.0 mi ESE 9.2 mph - N/A   Overcast
9:16 PM 48.2 °F - 35.6 °F 62% 29.68 in 10.0 mi SE 6.9 mph - N/A   Overcast
9:36 PM 48.2 °F - 33.8 °F 58% 29.69 in 10.0 mi SSE 4.6 mph - N/A   Overcast
9:56 PM 48.2 °F - 35.6 °F 62% 29.69 in 10.0 mi Calm Calm - N/A   Overcast
10:36 PM 48.2 °F - 37.4 °F 66% 29.68 in 10.0 mi NE 5.8 mph - N/A   Overcast
10:56 PM 46.4 °F 45.2 °F 39.2 °F 76% 29.68 in 10.0 mi NNE 3.5 mph - N/A   Overcast
11:16 PM 46.4 °F 44.3 °F 39.2 °F 76% 29.68 in 10.0 mi NNE 4.6 mph - N/A   Overcast
11:36 PM 44.6 °F 40.7 °F 37.4 °F 76% 29.66 in 10.0 mi NNE 6.9 mph - N/A   Mostly Cloudy
11:56 PM 44.6 °F 39.7 °F 37.4 °F 76% 29.66 in 10.0 mi NNE 9.2 mph - N/A   Scattered Clouds